Wind_Speed
75 75 75 75 75 74 74 74 73 73 73 72 71 69 68 67 66 65 64 64 64 64 64 65 65 65 64 63 63 63 63 63 63 63 63 63 63 63 63 63 63 63 62 62 62 61 61 61 62 62 62 62 62 62 61 61 60 60 59 59 59 58 58 58 58 58 58 58 58 58 59 59 60 60 61 61 61 61 62 62 62 63 63 63 63 63
75 75 75 75 74 74 74 73 73 72 72 71 70 69 68 67 66 65 64 63 63 63 63 64 64 64 63 62 62 62 62 62 62 63 63 63 63 63 63 64 64 64 63 63 63 62 62 63 63 63 63 63 63 63 63 62 62 61 61 60 60 59 59 59 58 58 58 58 58 59 59 59 60 60 61 61 62 62 62 62 63 63 63 63 63 63
76 75 75 75 74 74 73 73 72 72 71 71 70 69 68 67 66 64 63 62 62 62 62 63 63 63 62 61 61 61 61 62 62 62 62 62 63 63 63 64 64 64 64 64 63 63 63 63 64 64 64 65 65 64 64 64 63 62 62 61 61 60 60 59 59 59 58 58 59 59 59 60 60 61 61 62 62 62 63 63 63 63 63 63 63 63
76 75 75 75 74 73 73 72 71 71 71 70 70 69 68 66 65 64 63 62 61 61 62 62 62 62 61 60 60 60 61 61 61 61 62 62 62 63 63 63 64 64 64 64 64 64 64 64 65 65 65 65 65 65 65 64 64 63 63 62 62 61 60 60 59 59 59 59 59 59 60 60 60 61 61 62 62 63 63 63 63 63 63 63 63 63
75 75 75 74 73 73 72 71 71 70 70 70 69 68 67 66 64 63 62 61 61 61 61 61 61 60 60 59 59 59 60 60 60 61 61 61 62 62 63 63 63 64 64 64 64 64 64 65 65 65 66 66 66 66 65 65 65 64 64 63 62 62 61 60 60 60 60 60 60 60 60 60 61 61 62 62 62 63 63 63 63 63 63 63 63 63
75 75 74 74 73 72 71 70 70 70 69 69 69 68 67 66 64 62 61 61 61 60 60 60 60 59 59 59 59 59 60 60 60 60 61 61 61 62 62 63 63 63 64 64 64 64 65 65 65 66 66 66 66 66 66 65 65 65 64 64 63 62 61 61 60 60 60 60 60 60 61 61 61 61 62 62 62 63 63 63 63 63 63 64 64 64
74 74 74 73 72 72 71 70 69 69 68 68 69 68 67 65 63 62 61 60 60 60 60 59 59 59 58 58 59 59 60 60 60 60 60 61 61 61 62 62 63 63 64 64 64 65 65 65 65 65 66 66 66 66 66 65 65 65 65 64 63 63 62 61 61 61 61 61 61 61 61 61 61 62 62 62 62 62 63 63 63 63 64 64 64 65
73 73 72 72 71 70 70 69 68 68 68 68 68 68 67 65 63 62 61 60 59 59 59 59 59 59 59 59 59 60 60 60 60 60 61 61 61 61 62 62 63 63 64 64 64 65 65 65 65 65 65 66 66 65 65 65 65 65 65 64 63 63 62 62 62 61 61 61 61 61 62 62 62 62 62 62 62 62 63 63 63 63 64 64 65 65
71 71 71 70 69 69 68 68 67 67 67 67 68 68 67 65 63 62 61 60 59 59 59 59 59 60 60 60 60 61 61 61 61 61 61 61 61 62 62 62 63 63 64 64 64 64 65 65 65 65 65 65 65 65 65 65 65 65 65 64 63 63 62 62 62 62 62 62 62 62 62 62 62 62 62 62 62 62 63 63 63 64 64 65 65 66
70 69 69 69 68 68 67 66 66 66 66 67 67 67 66 65 63 62 61 60 60 59 59 60 60 61 61 61 61 62 62 62 62 62 62 62 62 62 62 63 63 63 64 64 64 64 64 64 64 64 64 64 64 64 64 64 65 65 64 64 63 63 62 62 62 62 62 62 62 62 62 62 62 62 62 62 62 63 63 63 63 64 64 65 66 66
68 68 67 67 67 66 66 65 65 65 65 66 67 67 66 65 63 62 62 62 62 61 61 61 62 62 62 62 62 62 63 63 62 62 62 62 63 63 63 63 63 63 63 63 63 63 63 63 63 63 64 64 64 64 64 64 64 64 64 63 63 62 62 62 62 62 62 62 63 63 63 63 63 63 63 62 62 63 63 63 64 64 65 65 66 67
66 66 65 65 65 64 64 64 64 65 65 65 66 66 65 64 63 63 63 64 63 63 62 63 63 63 63 63 63 63 63 63 63 63 63 63 63 63 63 63 63 63 63 62 62 62 62 62 62 62 62 62 62 63 63 63 63 63 63 63 63 62 62 62 62 62 62 63 63 63 63 63 63 63 63 63 63 63 63 63 64 64 65 65 66 67
64 64 64 63 63 63 63 63 63 64 64 64 65 65 64 63 63 63 64 65 65 64 64 64 64 64 64 64 64 64 64 64 64 64 63 63 63 62 62 62 62 62 61 61 61 61 61 61 61 61 61 61 61 62 62 62 63 63 63 63 62 62 62 62 62 62 62 63 63 63 63 63 63 63 63 63 63 63 63 63 64 64 65 65 66 67
62 62 62 62 62 62 62 62 63 63 63 64 64 64 63 63 63 63 64 64 65 65 64 64 64 65 65 65 64 64 64 64 63 63 63 62 62 61 61 61 60 60 60 60 60 60 60 60 60 60 60 60 61 61 61 62 62 62 62 62 62 62 62 62 62 62 62 63 63 63 63 63 63 63 63 63 63 63 63 63 63 64 65 65 66 67
60 60 60 60 60 60 61 61 62 62 62 63 63 63 63 62 62 63 63 64 64 64 64 64 64 64 64 64 64 64 63 63 62 61 61 61 60 60 60 59 59 59 59 58 58 59 59 59 59 59 59 59 60 60 61 61 62 62 62 62 62 62 62 62 62 62 62 62 63 63 63 63 63 63 63 63 63 63 63 63 64 64 64 65 66 66
59 59 59 59 59 59 60 60 60 61 61 62 62 62 62 62 62 62 62 63 63 63 62 62 62 62 62 62 63 63 62 61 60 60 59 59 58 58 58 58 58 58 58 58 58 58 58 58 58 58 58 59 59 60 61 61 61 62 62 62 62 62 61 61 61 62 62 62 63 63 63 63 63 63 63 63 63 63 63 63 64 64 64 65 65 66
57 58 58 58 58 58 58 59 59 60 60 60 61 61 62 62 62 62 62 62 61 61 61 61 60 60 60 60 61 61 61 60 59 58 57 57 57 57 57 57 57 57 57 57 57 57 57 57 57 58 58 58 59 60 60 61 61 61 61 61 61 61 61 61 61 61 62 62 62 63 63 63 63 63 63 63 63 63 63 63 63 63 64 64 65 65
56 56 56 56 57 57 57 58 58 58 59 59 60 61 61 61 61 61 61 61 60 60 60 60 59 59 58 58 59 59 59 59 58 57 56 56 56 56 56 56 56 56 56 56 56 57 56 57 57 57 58 58 59 60 60 61 61 61 61 61 61 61 60 60 60 61 61 62 62 62 63 63 63 63 63 63 63 63 63 63 63 63 63 63 64 64
54 55 55 55 55 56 56 56 57 57 57 58 59 60 61 61 60 60 60 60 60 59 59 58 58 57 57 57 58 58 58 58 57 56 55 55 55 55 55 55 55 55 55 55 55 56 56 56 56 57 58 59 59 60 60 60 61 61 61 60 60 60 60 60 60 61 61 62 62 62 62 63 63 63 63 63 62 62 62 62 62 62 62 63 63 64
53 53 53 53 53 54 54 55 55 55 56 57 58 59 60 60 59 59 59 59 59 59 58 58 57 57 56 56 57 57 57 57 56 56 55 55 55 55 55 55 55 55 55 55 55 55 55 56 57 58 58 59 60 60 60 60 60 60 60 60 59 59 59 59 60 60 61 61 62 62 62 63 63 63 62 62 62 61 61 61 61 61 62 62 63 63
52 51 51 51 52 52 53 53 53 54 55 56 56 57 58 58 58 58 58 58 58 58 57 57 56 56 56 56 56 56 56 56 55 55 55 54 54 55 55 55 54 54 54 54 55 55 56 57 58 58 59 59 60 60 60 60 60 60 59 59 58 58 58 59 59 60 61 61 61 62 62 62 62 62 62 61 61 61 61 61 61 61 61 62 62 63
49 49 49 50 50 50 51 51 52 53 53 54 54 55 56 56 57 57 57 57 57 56 56 56 56 55 55 55 55 55 55 55 54 54 54 53 54 54 54 54 54 54 54 55 55 56 57 57 58 59 59 59 60 60 60 60 59 59 58 58 58 58 58 58 59 60 60 61 61 62 62 62 62 61 61 61 60 60 60 60 60 61 61 62 62 63
46 47 47 48 48 49 49 50 50 51 52 52 53 53 54 55 55 56 56 56 55 55 55 55 55 54 54 54 54 54 54 53 53 53 53 53 53 53 54 54 54 54 54 55 55 56 57 57 58 58 58 59 59 59 59 59 58 58 57 57 57 57 57 58 59 59 60 60 61 61 61 61 61 60 60 60 59 59 60 60 60 61 61 62 62 63
44 44 45 45 46 47 47 48 49 49 50 50 51 51 52 53 54 54 55 55 54 54 54 54 54 53 53 53 53 53 53 52 52 52 52 52 52 53 53 53 53 54 54 54 55 55 56 56 57 57 58 58 58 58 58 58 57 57 57 56 56 56 57 58 58 59 59 60 60 60 60 60 59 59 59 59 59 59 59 60 60 61 61 62 62 63
44 43 43 43 44 45 46 47 47 48 49 49 49 50 51 51 52 53 54 54 53 53 53 53 52 52 52 51 51 51 52 51 51 51 51 51 51 51 52 52 52 53 53 54 54 54 55 55 56 56 57 57 57 57 57 57 56 56 56 56 56 56 57 57 58 58 59 59 59 59 59 58 58 58 58 58 58 59 59 59 60 61 61 62 62 63
44 43 43 42 42 43 44 45 46 47 48 48 49 49 50 50 51 52 52 52 52 52 52 52 51 51 51 50 50 50 51 50 50 50 50 50 50 50 51 51 52 52 53 53 54 54 55 55 55 56 56 56 56 56 56 56 55 55 55 55 56 56 56 57 57 58 58 58 58 57 57 57 57 57 58 58 58 58 59 59 60 61 61 62 62 62
44 43 43 42 42 42 43 44 45 46 47 47 48 48 49 50 50 51 51 51 51 51 51 51 51 50 50 49 49 49 49 50 50 49 49 49 49 49 50 50 51 52 53 53 54 54 54 55 55 55 55 55 55 55 55 55 55 55 55 55 55 56 56 56 57 57 57 57 57 57 57 57 57 57 57 58 58 58 59 59 60 60 61 61 62 62
43 43 43 43 42 42 42 43 44 44 45 46 47 48 49 49 49 50 50 50 50 51 51 50 50 49 49 49 48 49 49 49 49 49 49 49 49 49 50 50 51 52 53 53 54 54 54 55 55 55 55 55 55 55 55 54 54 54 55 55 55 55 56 56 56 56 56 56 56 56 56 56 57 57 57 58 58 58 59 59 60 60 61 61 61 62
42 42 42 42 42 42 42 42 43 43 44 45 46 47 47 48 48 48 49 49 50 50 50 49 49 49 48 48 48 48 48 48 48 49 49 49 49 49 50 51 52 52 53 54 54 54 54 54 54 54 54 54 54 54 54 54 54 54 54 55 55 55 55 56 56 56 56 55 55 56 56 56 57 57 57 58 58 58 59 59 60 60 60 61 61 61
41 41 41 41 42 42 42 42 42 42 43 43 44 45 46 46 47 47 48 48 49 49 49 48 48 48 48 48 47 47 47 47 48 48 49 49 50 50 50 51 52 53 53 54 54 54 54 54 54 54 54 54 54 54 54 54 54 54 54 55 55 55 55 55 55 55 55 55 55 55 56 56 57 57 57 58 58 58 59 59 60 60 60 61 61 61
41 41 41 41 41 42 42 42 42 42 42 43 43 44 45 45 45 46 47 47 48 48 48 48 48 48 48 47 47 47 46 46 47 48 49 50 50 50 50 51 52 52 53 53 53 53 53 53 53 53 53 53 53 53 53 54 54 54 55 55 55 55 55 55 55 55 55 55 55 56 56 56 57 57 57 58 58 58 58 59 59 60 60 61 61 61
41 41 41 41 42 42 42 42 43 43 43 43 43 43 44 44 45 45 46 46 47 47 48 48 48 48 48 48 47 47 46 47 48 48 49 50 50 50 50 51 52 52 53 53 53 53 52 52 52 52 52 52 52 53 53 54 54 54 55 55 55 55 55 55 55 55 55 55 55 56 56 56 57 57 57 57 58 58 58 59 59 60 60 61 61 62
40 40 41 41 42 42 42 42 43 43 43 44 44 44 44 44 45 45 45 46 46 47 48 48 48 48 49 49 48 48 48 48 48 49 49 50 50 50 50 51 51 52 52 52 52 52 51 51 50 50 51 51 52 52 53 54 54 54 55 55 55 55 55 55 55 55 55 55 55 56 56 56 57 57 57 57 57 58 58 58 59 60 60 61 61 62
39 40 40 41 41 41 42 42 43 43 43 44 44 44 44 45 45 45 45 46 46 47 48 48 49 49 49 50 50 49 49 49 50 50 50 50 50 51 51 51 51 51 51 51 51 51 50 49 49 49 50 51 52 52 53 54 54 55 55 55 54 54 55 55 55 55 55 55 55 55 56 56 56 57 57 57 57 57 58 58 59 59 60 61 62 62
38 39 39 39 40 40 41 41 41 42 42 43 44 44 44 45 45 45 45 45 46 46 47 48 49 49 50 50 50 51 51 51 51 52 52 51 51 51 51 51 51 51 50 50 50 49 48 48 49 49 50 51 52 53 53 54 54 54 54 54 54 54 54 55 55 55 55 55 55 55 55 56 56 56 56 56 57 57 57 58 58 59 60 61 61 62
38 38 38 38 39 39 39 40 40 41 41 42 42 43 44 44 44 44 45 45 45 45 46 47 48 49 50 50 51 51 52 52 52 53 52 52 51 51 50 50 50 49 49 49 49 48 48 49 49 50 51 52 53 53 53 54 54 54 54 54 54 54 54 54 54 54 54 54 54 54 55 55 55 56 56 56 56 57 57 57 58 59 60 60 61 61
38 37 37 37 37 38 38 38 39 39 40 40 41 41 42 42 43 43 43 44 44 44 45 45 46 47 48 50 50 51 52 53 53 53 53 52 51 50 50 49 49 49 49 49 49 49 49 50 51 51 52 53 53 54 54 54 54 53 53 53 53 53 53 53 54 53 53 53 53 54 54 54 55 55 55 55 56 56 57 57 58 58 59 59 59 59
38 37 37 37 37 37 37 37 38 38 39 39 39 39 40 40 40 41 41 41 42 42 43 43 44 45 47 48 49 50 51 52 53 52 52 51 51 50 49 48 48 48 48 49 50 50 51 51 51 52 52 53 53 53 53 53 53 53 53 53 53 52 52 52 53 53 53 53 53 53 53 54 54 54 54 55 55 56 57 57 57 58 58 58 58 58
37 37 37 37 37 37 37 37 37 38 38 38 38 37 37 37 38 38 39 39 40 41 41 42 42 43 44 46 47 49 50 51 52 51 51 50 50 49 48 48 47 48 48 49 50 50 51 51 51 52 52 52 52 52 52 52 52 52 52 52 52 51 51 52 52 52 52 52 52 52 53 53 53 54 54 55 55 56 56 56 56 56 56 56 56 56
36 36 36 37 37 37 37 37 37 37 37 37 37 36 36 37 37 37 38 38 39 39 40 41 41 42 43 44 45 47 48 50 50 50 50 50 49 48 47 47 47 47 48 49 49 50 50 50 50 50 50 50 50 50 50 50 50 51 51 50 50 50 50 51 51 51 51 51 52 52 52 53 53 53 54 55 55 56 56 56 55 55 55 54 54 54
35 35 36 37 37 38 38 38 38 38 37 37 37 37 37 38 38 38 39 39 39 40 40 40 41 41 42 43 44 45 47 48 49 49 50 49 49 48 47 47 47 47 48 48 49 49 49 49 48 48 48 48 48 48 48 49 49 49 49 49 49 49 49 50 50 50 51 51 52 52 52 52 53 53 54 55 55 55 55 55 54 54 53 53 53 53
34 34 35 36 37 38 39 39 39 39 39 39 39 39 39 40 40 40 41 41 41 41 41 41 41 42 42 42 43 44 45 46 47 48 49 49 49 48 48 47 47 48 48 48 48 48 48 48 47 47 46 46 46 47 47 47 48 48 49 49 49 49 49 49 50 50 51 51 51 51 51 52 53 53 54 55 55 55 54 54 53 52 52 52 52 52
34 34 35 36 37 39 39 40 40 41 41 41 41 41 42 42 42 42 42 42 42 42 42 42 42 42 42 42 43 44 44 45 46 48 49 49 49 49 49 48 48 49 49 49 48 48 48 48 47 47 47 47 47 47 46 47 47 48 48 48 48 48 48 48 49 50 51 51 51 51 51 52 53 54 54 54 54 54 53 52 52 51 51 51 51 51
35 35 36 37 38 39 40 41 42 42 43 43 43 43 43 44 44 43 43 43 43 43 43 43 43 43 43 43 43 43 44 45 46 47 49 50 50 50 50 50 50 50 50 49 49 48 48 48 48 48 48 48 48 48 47 47 47 47 48 48 48 49 48 49 49 50 50 50 50 50 51 52 53 54 54 53 53 53 52 51 50 50 49 49 50 50
36 37 37 38 39 40 41 42 43 44 44 44 44 44 44 44 44 44 44 44 43 43 43 43 43 43 43 43 43 43 44 44 45 46 48 49 50 51 51 51 51 51 51 51 50 50 49 49 49 49 50 50 50 49 48 47 47 47 48 48 49 49 49 49 50 50 49 49 49 50 51 52 53 53 53 53 52 51 51 50 49 48 48 48 49 49
38 38 38 39 40 41 42 42 43 44 44 45 45 45 45 45 45 45 45 44 44 44 43 43 43 42 42 43 43 43 43 43 43 44 45 47 48 50 51 51 52 52 52 51 51 51 50 50 50 50 50 51 50 49 48 48 48 48 48 48 49 49 49 50 50 49 49 49 49 50 51 52 53 53 52 52 51 50 50 49 48 47 47 47 47 47
40 40 40 40 41 42 42 43 44 44 45 45 45 45 45 46 45 45 45 45 44 44 44 43 43 43 43 43 43 43 42 42 41 41 42 43 45 46 48 49 50 51 51 51 51 51 51 51 51 51 51 50 50 49 48 48 48 48 48 48 49 49 50 49 49 49 49 49 49 49 51 52 52 52 51 51 50 49 48 47 46 46 46 46 46 45
41 42 42 42 42 43 43 44 44 45 45 45 45 46 46 46 46 45 45 45 45 44 44 43 43 43 42 42 42 42 41 40 39 39 39 40 41 43 44 46 47 49 49 50 50 50 50 50 51 51 50 50 49 48 48 48 48 48 48 49 49 49 50 49 49 49 49 49 49 49 50 51 51 51 51 50 50 48 47 46 45 44 44 44 44 44
42 43 43 44 44 44 44 45 45 45 45 46 46 46 46 46 46 45 45 45 44 44 43 43 42 42 42 41 41 41 40 39 38 37 38 39 40 42 43 44 45 46 47 48 48 48 49 49 49 49 49 49 48 48 48 48 48 48 49 49 49 49 49 49 48 48 48 48 48 49 50 50 50 50 50 50 49 48 46 45 44 43 42 42 42 42
44 44 44 45 45 45 45 45 45 46 45 45 45 45 46 45 45 45 44 44 44 44 43 42 42 41 41 40 40 39 39 38 37 38 39 40 41 43 44 45 45 46 46 46 46 47 47 48 48 47 47 47 47 48 48 48 48 48 49 49 49 49 49 48 48 47 47 48 48 49 49 49 50 50 50 49 48 47 45 44 42 41 40 40 40 40
45 45 45 46 46 46 46 45 45 45 45 45 45 45 45 45 45 44 44 44 43 43 43 42 41 40 39 39 38 38 38 38 38 39 40 42 43 44 45 46 46 46 46 45 45 46 46 46 46 46 45 46 47 47 48 48 48 48 48 48 48 48 48 47 47 47 47 47 48 48 48 48 49 49 49 49 48 47 45 43 41 39 38 38 39 39
Wind_Direction
272 272 272 272 272 272 272 272 273 273 273 273 274 274 274 273 272 271 270 269 267 265 262 260 260 260 261 260 258 257 256 256 256 256 256 256 256 256 257 257 258 258 259 260 260 261 262 263 264 264 265 266 266 267 268 268 269 269 270 271 272 272 273 274 275 276 276 276 275 275 274 273 272 271 270 270 269 269 269 269 269 269 268 267 266 265
272 271 272 272 272 272 272 272 272 272 272 273 273 273 273 272 272 271 270 268 266 264 262 260 260 260 260 259 257 256 256 256 257 257 257 257 257 257 257 258 258 259 260 260 261 262 263 263 264 265 265 266 266 267 267 268 268 269 269 270 271 272 273 274 275 275 276 276 275 275 274 273 272 271 270 270 270 270 270 270 270 269 268 267 266 264
271 271 271 271 271 271 272 271 271 271 271 272 272 272 272 272 271 270 269 267 265 263 262 261 260 260 260 258 257 256 257 257 257 257 257 257 258 258 258 258 259 260 260 261 262 263 263 264 264 265 266 266 266 267 267 268 268 268 269 269 270 271 272 273 274 275 276 276 275 275 274 273 272 271 271 270 270 270 270 270 270 269 268 267 265 264
271 271 271 270 271 271 271 271 271 270 270 270 271 271 271 271 270 270 268 267 265 263 262 261 261 260 259 258 257 256 257 257 258 258 258 258 258 258 259 259 260 260 261 262 262 263 264 264 265 265 266 266 266 267 267 267 268 268 268 269 270 271 271 273 274 275 275 275 275 274 274 273 272 271 271 270 270 270 270 270 270 269 268 266 265 263
271 270 270 270 270 270 270 270 270 270 270 269 269 270 270 270 270 269 268 266 265 263 262 261 261 260 259 257 256 257 257 258 258 259 259 259 259 259 259 260 260 261 262 262 263 264 264 265 265 265 266 266 266 267 267 267 267 268 268 268 269 270 271 272 273 274 274 275 274 274 273 273 272 271 271 271 270 270 270 270 270 269 267 266 264 263
271 270 270 270 270 269 269 269 269 269 269 268 268 268 269 269 269 268 267 266 265 263 262 261 261 260 259 258 257 257 258 258 259 259 259 259 260 260 260 260 261 262 262 263 264 264 265 265 265 266 266 266 267 267 267 267 267 267 268 268 269 269 270 271 273 273 274 274 274 274 273 273 272 272 271 271 271 271 270 270 269 268 267 266 264 263
271 270 270 270 269 269 269 268 268 268 268 268 267 267 267 268 268 267 267 266 264 263 262 262 261 260 259 258 258 258 258 259 259 260 260 260 260 260 261 261 262 262 263 263 264 265 265 265 266 266 266 266 267 267 267 267 267 267 267 267 268 269 270 271 272 273 273 274 273 273 273 272 272 272 271 271 271 271 271 270 269 268 267 265 264 263
271 270 270 270 269 269 268 268 268 267 267 267 267 266 266 267 267 266 266 265 264 263 263 262 262 261 260 259 259 259 259 260 260 260 261 261 261 261 262 262 263 263 263 264 264 265 265 266 266 266 266 266 267 267 267 267 267 267 267 267 268 268 270 271 272 272 273 273 273 273 272 272 272 271 271 271 271 271 271 270 269 268 267 265 264 264
271 271 270 270 269 269 268 268 267 267 266 266 266 266 266 266 266 265 265 264 264 263 263 263 262 262 261 260 260 260 260 260 261 262 262 262 262 262 263 263 263 264 264 264 265 265 265 266 266 266 266 266 266 267 267 267 267 266 267 267 268 268 269 270 271 272 273 273 273 272 272 272 271 271 271 271 271 271 271 270 269 268 267 265 265 264
271 271 270 269 269 268 268 267 267 266 266 265 265 265 265 265 265 264 264 264 263 263 262 263 263 263 262 262 261 261 261 261 262 262 263 263 264 264 264 264 264 264 264 264 265 265 265 266 266 266 266 266 266 266 266 266 266 266 266 267 268 268 269 270 271 272 272 272 272 272 272 271 271 271 271 271 271 271 271 270 269 268 267 266 265 264
271 270 270 269 269 268 268 267 267 266 265 265 265 265 265 265 264 264 263 263 262 262 262 262 262 263 263 263 263 263 263 263 263 264 264 265 265 265 265 265 265 265 265 265 265 265 265 265 266 266 266 266 266 266 266 266 266 266 266 267 267 268 269 270 271 271 272 272 272 272 272 271 271 271 271 271 271 271 271 270 269 268 267 266 265 264
271 270 270 269 268 268 267 267 266 266 265 265 265 265 265 265 264 264 263 263 263 262 262 262 262 262 263 263 264 264 264 265 265 265 265 266 266 266 266 266 265 265 265 265 265 265 265 265 266 266 266 266 265 265 265 265 265 266 266 267 267 268 269 270 271 271 272 272 272 272 271 271 271 271 271 271 271 271 271 270 269 268 267 266 265 265
271 270 269 269 268 267 267 266 266 266 265 265 266 266 265 265 264 264 264 264 263 263 262 262 263 263 263 264 264 265 265 266 266 267 267 267 267 267 267 266 266 266 266 265 265 266 266 266 266 266 266 265 265 265 265 265 265 266 266 267 267 268 269 270 271 271 271 272 272 272 272 272 272 272 272 272 272 272 271 271 270 269 268 267 266 265
270 270 269 268 268 267 267 266 266 266 265 265 265 265 265 265 265 264 264 264 264 264 264 264 264 264 265 265 265 265 266 266 267 267 267 267 268 268 267 267 266 266 266 266 266 266 266 266 266 266 266 265 265 265 265 265 266 266 266 267 268 268 269 270 271 271 271 272 272 272 272 272 272 272 272 272 272 272 272 271 271 270 269 268 267 266
269 269 268 268 267 267 266 266 266 266 266 266 265 265 265 265 265 265 265 265 265 265 265 265 265 265 266 266 266 266 266 267 267 267 267 268 268 268 267 267 267 266 266 267 267 267 267 267 266 266 266 266 265 265 266 266 266 266 267 267 268 269 270 271 271 271 272 272 272 272 272 272 273 273 273 273 273 273 272 272 271 270 269 269 268 267
269 268 268 268 267 267 266 266 266 266 266 266 266 265 265 265 265 265 265 265 265 266 266 266 266 266 266 267 267 267 267 267 267 267 267 267 267 267 267 267 267 267 267 267 267 267 267 267 266 266 266 266 265 265 266 266 266 267 267 268 269 269 270 271 271 272 272 272 273 273 273 273 273 273 274 274 274 273 273 273 272 271 270 270 269 268
268 268 268 267 267 266 266 266 266 266 266 266 266 265 265 265 265 265 266 266 266 266 266 266 266 267 267 267 267 268 268 267 267 267 267 267 266 266 267 266 266 266 267 267 267 267 267 267 266 266 266 266 265 266 266 266 267 267 268 268 269 270 271 271 272 272 272 273 273 273 274 274 274 274 274 275 274 274 274 273 272 272 271 270 270 269
268 268 268 267 267 266 266 266 265 265 265 265 265 265 265 265 265 266 266 266 267 267 267 266 267 267 267 267 267 267 267 267 267 266 266 266 266 266 266 266 266 266 267 267 267 267 267 267 266 266 266 265 265 266 266 267 267 268 268 269 270 271 271 272 272 273 273 273 273 274 274 275 275 275 275 275 275 275 274 274 273 273 272 271 271 271
268 268 268 267 267 267 266 266 265 265 265 265 265 265 265 266 266 266 266 266 266 267 267 267 267 267 267 267 266 266 266 266 266 266 266 266 265 265 265 265 266 266 267 267 267 267 267 266 266 266 265 265 266 266 266 267 268 268 269 270 271 271 272 272 273 273 273 273 274 274 275 275 276 276 276 276 276 275 275 274 274 273 273 273 272 272
269 268 268 268 267 267 266 266 265 265 265 264 264 265 265 266 266 266 266 266 266 266 267 267 267 267 266 266 266 265 266 266 266 266 266 265 265 265 266 266 266 266 267 267 267 267 266 266 265 265 265 265 266 266 267 267 268 269 270 271 271 272 272 273 273 273 273 274 275 275 276 276 277 277 277 276 276 276 275 275 275 274 274 274 273 273
270 269 269 268 268 267 267 266 266 265 265 264 264 265 266 266 266 266 265 266 266 266 266 267 266 266 266 266 265 265 265 265 265 265 265 265 265 265 266 266 266 267 267 266 266 266 265 265 265 265 265 266 266 267 267 268 269 270 270 271 272 272 273 273 273 273 274 274 275 276 277 277 277 277 277 277 276 276 275 275 275 275 275 274 274 274
271 270 270 269 268 268 267 267 266 265 265 265 265 265 266 266 266 266 266 265 265 266 266 266 266 266 266 266 265 265 265 265 265 265 265 264 264 265 265 265 266 266 266 266 265 265 265 265 265 265 266 266 267 267 268 269 269 270 271 272 272 272 273 273 273 274 274 275 276 277 277 277 278 277 277 277 276 276 276 275 275 275 275 275 275 275
270 270 270 270 269 269 268 267 267 266 266 265 265 265 266 266 266 266 266 266 266 265 265 265 265 265 265 265 265 265 265 265 265 265 264 264 264 264 264 264 265 265 265 265 265 265 265 265 265 266 266 267 267 268 268 269 270 271 271 272 272 273 273 273 273 274 275 276 277 277 278 278 278 277 277 277 277 276 276 276 276 276 276 276 276 276
270 270 269 270 269 269 269 268 267 267 267 266 266 266 266 266 266 266 266 266 266 266 265 265 265 265 265 265 265 265 265 265 265 264 264 264 264 264 264 264 264 264 265 265 265 265 265 266 266 267 267 267 268 268 269 269 270 271 271 272 272 273 273 273 274 275 276 276 277 277 278 277 277 277 277 277 277 277 277 277 277 277 277 277 277 277
271 270 269 268 268 269 268 268 268 268 267 267 266 266 266 266 266 266 266 266 266 266 266 265 265 265 264 264 264 264 264 264 264 264 264 264 264 264 264 264 264 265 265 265 265 265 266 266 267 267 268 268 268 269 269 270 270 271 271 272 272 273 273 273 274 275 276 277 277 277 277 277 277 277 277 277 277 277 277 277 277 278 278 278 278 278
273 272 270 269 268 268 268 268 268 268 268 267 267 266 266 266 266 266 266 267 267 266 266 265 265 265 264 264 264 264 264 264 264 264 264 264 264 264 264 264 265 265 265 265 266 266 267 267 268 268 269 269 269 269 269 270 270 271 271 272 272 272 273 273 274 275 276 277 277 277 277 277 277 277 278 278 278 278 278 278 278 279 279 279 279 279
275 274 272 270 269 268 267 267 267 267 267 267 267 267 266 266 266 267 267 267 267 267 267 266 266 265 265 265 264 264 264 264 264 264 264 264 264 264 264 265 265 265 266 266 266 267 267 268 268 269 269 269 269 269 269 270 270 271 271 271 272 272 272 273 274 275 276 276 277 277 277 278 278 278 278 278 278 279 279 279 279 279 280 280 280 281
276 276 274 273 271 270 268 267 267 267 267 267 267 267 267 267 267 267 268 268 268 267 267 267 267 266 266 265 265 265 264 265 265 265 264 264 264 265 265 265 265 266 266 266 267 267 267 268 268 269 269 269 269 269 269 270 270 270 270 271 271 271 272 273 274 275 275 276 277 277 278 278 278 279 279 279 279 280 280 280 280 281 281 281 282 282
277 276 276 275 274 272 271 269 268 267 267 267 266 266 266 267 267 268 268 268 268 268 268 268 268 267 267 266 265 265 265 265 265 265 265 265 265 265 265 266 266 266 266 267 267 267 268 268 268 269 269 269 269 269 269 269 269 269 270 270 270 270 271 272 273 274 275 276 277 278 278 279 279 279 279 280 280 280 281 281 281 282 282 283 283 283
278 277 277 276 275 274 273 271 270 269 268 267 267 267 267 267 267 268 268 268 268 268 269 269 268 268 267 267 266 266 265 265 266 266 265 265 265 265 265 265 266 266 266 267 267 267 268 268 268 268 268 268 268 268 268 268 268 268 268 268 269 270 271 272 273 275 276 277 278 278 279 279 280 280 280 280 281 281 282 282 283 283 283 284 284 285
280 279 278 277 276 276 275 273 272 271 270 269 268 268 268 268 268 267 267 268 268 268 269 269 269 268 268 267 267 266 265 265 265 265 265 265 265 265 265 265 265 266 266 266 267 267 267 268 268 267 267 267 267 267 268 268 268 268 268 268 268 269 271 272 273 275 276 277 278 279 279 280 280 280 281 281 282 282 283 283 284 284 285 285 285 285
281 280 280 279 278 277 276 275 274 273 272 271 270 269 269 269 268 268 267 268 268 268 268 269 269 268 268 268 267 267 266 265 265 264 265 265 265 265 265 265 265 266 266 266 267 267 267 267 267 267 267 267 267 267 267 267 267 267 267 267 268 269 271 272 274 275 276 277 278 279 279 280 280 281 281 282 282 283 284 284 285 285 286 286 286 286
282 281 281 280 279 279 278 277 276 275 274 273 272 271 270 269 269 268 268 268 268 268 268 268 268 268 268 268 267 267 266 265 265 264 264 264 264 264 265 265 265 266 266 267 267 267 267 267 267 266 266 266 266 267 267 267 267 267 267 267 268 269 271 272 274 275 276 277 278 279 279 280 280 281 282 283 283 284 285 285 286 286 287 287 287 287
281 281 281 280 280 279 279 278 277 276 275 275 274 273 271 271 270 269 268 268 267 267 268 268 268 268 268 268 268 267 266 266 265 265 264 264 264 265 265 265 265 266 267 267 268 268 268 267 267 266 266 266 266 266 267 267 267 266 266 267 268 269 271 272 274 275 276 277 278 279 279 280 281 282 282 283 284 285 285 286 286 287 287 287 287 287
281 281 280 280 280 279 279 278 278 277 276 276 275 274 273 272 271 270 270 269 268 268 268 268 268 268 268 268 268 267 267 266 265 265 265 264 264 265 265 265 266 267 267 268 268 268 268 267 266 266 266 266 266 266 266 266 266 266 266 266 268 269 271 272 274 275 276 277 278 278 279 280 281 282 283 284 285 285 286 286 287 287 287 287 288 288
280 280 280 279 279 279 279 278 278 277 277 276 276 275 275 274 273 273 272 271 270 269 269 269 269 269 268 268 268 268 267 266 266 265 265 265 265 265 265 265 266 267 267 268 268 268 267 267 266 265 265 266 266 266 266 265 265 265 265 266 268 269 271 272 274 275 276 277 277 278 279 280 281 282 283 284 285 286 286 286 287 287 287 288 288 288
280 279 279 279 278 278 278 278 278 277 277 277 276 276 276 276 275 275 274 273 273 272 271 270 270 269 269 269 268 268 267 267 266 266 266 265 265 265 265 265 266 266 267 268 268 267 267 266 266 266 266 266 266 265 265 264 264 264 265 266 268 269 271 272 273 274 275 276 277 278 279 280 281 282 284 284 285 285 286 286 286 287 287 287 288 289
280 279 278 278 277 277 277 277 277 277 277 277 277 277 277 277 277 277 276 276 275 274 273 272 271 270 270 269 268 268 267 267 267 266 266 265 265 264 265 265 265 266 266 267 267 267 266 266 265 265 265 265 265 264 264 264 264 264 265 267 268 270 271 272 273 274 275 276 277 278 279 280 281 282 283 284 284 285 285 286 286 287 287 288 288 289
280 279 278 277 276 276 276 275 276 276 276 277 277 278 278 279 279 279 278 278 277 276 275 274 273 272 271 270 269 268 267 267 266 266 265 264 264 264 264 264 265 265 266 266 266 266 266 266 265 265 265 264 264 263 263 263 263 264 266 267 268 270 271 272 273 273 274 275 277 278 279 280 281 282 283 284 284 285 285 286 286 287 287 288 289 289
278 278 277 276 275 275 274 274 275 275 276 277 278 279 279 279 280 280 280 279 279 279 278 277 276 275 274 273 272 270 269 268 266 265 264 263 263 262 263 263 264 264 264 265 265 265 266 266 266 265 265 264 263 262 262 263 264 265 266 267 268 269 270 271 272 273 274 275 276 277 279 280 281 282 283 283 284 285 285 286 287 287 288 288 289 289
277 276 276 275 275 274 274 274 275 275 276 277 278 279 279 280 280 280 280 280 280 280 280 280 279 278 277 276 275 274 272 270 268 265 263 262 261 261 261 261 262 262 263 264 264 265 265 266 266 265 264 264 263 262 262 263 264 265 266 268 268 269 270 271 272 273 274 275 276 278 279 280 281 282 283 283 284 285 286 287 287 288 289 289 289 289
277 275 274 274 274 275 275 275 276 276 277 277 278 279 279 280 280 280 280 281 281 281 281 281 281 280 280 279 278 277 276 273 270 267 264 262 260 260 259 259 260 260 261 262 263 264 265 265 265 265 265 264 264 263 264 264 265 266 267 268 268 269 270 271 272 273 274 275 277 278 279 280 281 282 283 284 285 286 287 287 288 289 289 289 289 288
279 277 275 275 275 275 275 276 276 277 277 278 278 279 279 280 280 280 280 281 281 281 281 281 281 282 282 281 280 279 277 275 272 268 264 261 259 258 258 258 258 259 260 261 263 263 263 264 264 264 264 264 264 265 265 266 266 267 267 268 269 269 269 270 272 273 274 276 277 278 279 280 281 282 283 284 285 286 287 288 289 290 290 289 288 287
282 280 278 277 276 276 276 277 277 277 278 278 278 279 279 279 279 279 280 280 280 280 281 281 281 282 282 282 282 280 278 276 273 269 266 262 260 258 257 257 257 258 259 260 262 262 263 263 263 264 264 264 265 266 267 267 267 268 268 269 269 269 270 271 272 273 275 276 277 279 280 281 282 283 284 285 286 287 288 289 290 290 290 289 287 286
284 282 281 279 279 278 278 278 278 278 278 278 278 278 278 278 278 278 279 279 279 279 279 280 281 282 282 283 282 281 279 276 274 271 268 264 261 259 257 257 257 258 258 259 260 261 262 262 263 263 263 264 265 266 268 268 268 268 268 269 270 270 271 272 273 274 275 276 277 278 280 281 282 283 284 285 287 288 289 290 290 290 289 288 286 284
286 285 283 282 281 280 279 279 279 278 278 278 278 277 277 277 277 277 277 277 277 278 278 279 280 281 282 282 281 280 279 277 274 272 269 266 263 261 259 258 257 257 258 259 259 260 261 262 262 263 263 264 266 267 268 269 269 269 269 269 270 271 272 272 273 274 275 276 278 279 280 281 282 283 285 286 287 288 289 290 290 289 288 286 284 282
287 286 285 284 283 282 281 280 279 279 278 278 277 277 277 276 276 276 276 276 277 277 277 278 279 280 281 282 281 280 279 277 275 272 270 268 265 263 261 259 258 258 258 259 259 260 261 261 262 263 264 265 266 267 268 269 269 269 269 269 270 271 272 273 274 275 276 277 278 279 280 281 282 284 285 287 288 289 290 290 290 289 287 285 282 280
288 287 286 285 284 283 282 281 280 279 279 278 277 277 277 276 276 276 276 276 276 277 277 278 279 280 281 281 281 280 279 277 274 272 270 268 266 265 263 261 260 259 259 259 260 260 261 262 263 264 265 266 267 268 269 268 269 269 269 270 270 271 272 273 274 275 276 277 278 279 280 281 283 284 286 287 288 289 290 290 289 288 286 283 280 277
288 287 286 285 284 283 282 281 280 279 279 278 277 277 277 276 276 276 276 276 276 276 277 278 278 279 279 280 280 279 278 276 273 271 269 268 267 265 264 263 262 261 260 260 261 261 262 263 263 264 266 267 268 269 269 268 269 269 269 270 271 272 273 273 274 275 276 277 278 280 281 282 284 285 286 287 288 289 290 289 289 287 284 281 278 275
289 288 287 286 285 284 283 282 281 280 279 278 278 277 276 276 276 275 275 276 276 276 277 277 277 278 278 278 278 277 275 273 270 268 267 266 266 265 264 263 262 261 261 261 262 263 264 264 265 265 266 268 269 269 269 269 269 269 270 270 271 272 273 274 275 276 277 278 279 280 281 283 284 286 287 288 289 290 290 290 288 286 283 279 276 273
289 288 287 286 286 285 283 282 281 280 279 279 278 277 277 276 276 275 275 275 275 276 276 276 276 276 276 276 276 275 272 270 267 266 266 265 265 264 263 262 261 261 261 262 264 265 265 266 266 267 267 268 269 269 269 269 269 269 270 271 272 273 273 274 275 276 277 278 279 280 282 283 285 286 287 288 289 290 290 290 288 286 282 278 273 271
Height
5532 5533 5533 5532 5532 5532 5531 5530 5529 5527 5525 5523 5522 5521 5520 5520 5520 5520 5520 5520 5520 5521 5521 5522 5523 5523 5524 5524 5525 5526 5526 5527 5528 5529 5530 5531 5532 5533 5534 5535 5536 5536 5537 5538 5538 5538 5539 5539 5539 5539 5539 5540 5540 5540 5541 5541 5542 5542 5542 5542 5542 5543 5543 5543 5542 5542 5542 5542 5542 5542 5542 5542 5542 5542 5542 5543 5543 5543 5543 5543 5544 5544 5544 5544 5545 5545
5525 5525 5525 5525 5525 5525 5524 5523 5523 5521 5519 5518 5516 5515 5514 5513 5513 5514 5514 5514 5514 5514 5515 5516 5517 5518 5518 5518 5519 5520 5520 5521 5522 5523 5524 5525 5526 5527 5528 5529 5530 5530 5531 5532 5533 5533 5533 5533 5533 5533 5533 5534 5534 5534 5535 5535 5536 5536 5536 5537 5537 5537 5537 5537 5537 5537 5537 5536 5536 5536 5536 5536 5536 5536 5536 5537 5537 5538 5538 5538 5538 5538 5538 5539 5539 5539
5518 5518 5518 5518 5518 5518 5517 5517 5516 5514 5513 5511 5510 5509 5508 5508 5508 5508 5508 5508 5508 5508 5509 5510 5511 5512 5512 5513 5513 5514 5514 5515 5516 5517 5518 5519 5520 5521 5522 5523 5524 5524 5525 5526 5527 5527 5527 5528 5528 5528 5528 5528 5528 5528 5529 5529 5530 5530 5531 5531 5531 5531 5531 5531 5531 5531 5531 5531 5531 5531 5531 5531 5531 5531 5531 5531 5531 5532 5532 5532 5532 5533 5533 5533 5534 5534
5510 5510 5511 5511 5511 5511 5510 5510 5509 5508 5506 5505 5504 5503 5503 5502 5502 5502 5502 5502 5502 5503 5503 5504 5505 5506 5506 5507 5508 5508 5509 5509 5510 5511 5512 5513 5514 5515 5516 5517 5518 5518 5519 5520 5520 5521 5521 5522 5522 5522 5522 5522 5522 5523 5523 5523 5524 5524 5525 5525 5525 5525 5525 5525 5525 5525 5525 5525 5525 5525 5525 5525 5525 5525 5525 5525 5526 5526 5526 5526 5527 5527 5527 5528 5528 5528
5503 5503 5503 5503 5503 5504 5503 5503 5502 5501 5500 5499 5498 5497 5497 5497 5496 5496 5496 5496 5496 5497 5497 5498 5499 5500 5500 5501 5502 5503 5503 5504 5504 5505 5506 5507 5508 5509 5510 5511 5512 5513 5513 5514 5514 5515 5515 5515 5516 5516 5516 5516 5516 5517 5517 5518 5518 5518 5519 5519 5519 5519 5519 5519 5519 5519 5519 5519 5519 5519 5519 5519 5519 5519 5519 5519 5520 5520 5520 5521 5521 5521 5522 5522 5523 5523
5495 5495 5495 5496 5496 5497 5496 5496 5496 5495 5494 5493 5492 5491 5491 5491 5491 5490 5490 5490 5490 5491 5491 5492 5493 5494 5495 5495 5496 5497 5497 5498 5499 5499 5500 5501 5502 5503 5504 5505 5506 5507 5507 5508 5508 5509 5509 5509 5510 5510 5510 5510 5510 5511 5511 5512 5512 5513 5513 5513 5513 5513 5513 5513 5513 5514 5513 5513 5513 5513 5513 5513 5513 5513 5513 5513 5514 5514 5514 5515 5515 5515 5516 5516 5517 5517
5488 5488 5488 5488 5489 5489 5489 5489 5489 5488 5488 5487 5486 5486 5485 5485 5485 5485 5485 5485 5485 5485 5486 5487 5487 5488 5489 5490 5490 5491 5492 5492 5493 5494 5495 5496 5497 5498 5498 5499 5500 5501 5501 5502 5502 5503 5503 5503 5503 5504 5504 5504 5504 5505 5505 5505 5506 5506 5507 5507 5507 5507 5508 5508 5508 5508 5508 5508 5508 5508 5508 5508 5508 5508 5508 5508 5508 5508 5508 5509 5509 5509 5510 5510 5511 5512
5480 5480 5481 5481 5481 5482 5482 5483 5482 5482 5481 5481 5480 5480 5480 5480 5480 5480 5479 5479 5479 5480 5480 5481 5482 5482 5483 5484 5484 5485 5486 5486 5487 5488 5489 5490 5491 5492 5493 5493 5494 5495 5495 5496 5496 5497 5497 5497 5498 5498 5498 5498 5498 5499 5499 5499 5499 5500 5500 5501 5501 5501 5502 5502 5502 5502 5502 5502 5502 5502 5502 5502 5502 5502 5502 5502 5502 5502 5503 5503 5503 5504 5504 5505 5505 5506
5472 5472 5473 5474 5474 5474 5475 5475 5476 5475 5475 5474 5474 5474 5474 5474 5474 5474 5474 5474 5474 5474 5475 5475 5476 5477 5478 5478 5479 5479 5480 5481 5482 5482 5483 5484 5485 5486 5487 5487 5488 5488 5489 5490 5490 5491 5491 5491 5491 5492 5492 5492 5492 5493 5493 5493 5493 5494 5494 5495 5495 5495 5496 5496 5496 5496 5496 5496 5496 5496 5496 5496 5496 5496 5496 5496 5496 5497 5497 5497 5497 5498 5498 5499 5499 5500
5465 5465 5466 5467 5467 5468 5468 5468 5468 5469 5468 5468 5468 5468 5468 5468 5468 5469 5469 5469 5469 5469 5470 5470 5470 5471 5472 5473 5473 5474 5474 5475 5476 5477 5478 5478 5479 5480 5481 5481 5482 5483 5483 5483 5484 5484 5485 5485 5485 5485 5486 5486 5486 5487 5487 5487 5488 5488 5488 5488 5489 5489 5490 5490 5490 5490 5490 5490 5490 5490 5490 5490 5490 5490 5490 5491 5491 5491 5491 5491 5491 5492 5492 5493 5493 5494
5458 5458 5459 5459 5460 5461 5462 5462 5462 5462 5462 5462 5461 5461 5462 5463 5463 5463 5463 5463 5463 5464 5464 5464 5465 5466 5466 5467 5468 5468 5469 5469 5470 5472 5472 5473 5473 5474 5474 5475 5476 5477 5477 5478 5478 5478 5479 5479 5479 5479 5479 5480 5480 5480 5481 5481 5481 5482 5482 5483 5483 5483 5484 5484 5484 5483 5483 5483 5483 5484 5484 5484 5484 5484 5484 5485 5485 5485 5485 5485 5485 5486 5486 5487 5487 5488
5451 5452 5452 5453 5453 5454 5455 5455 5455 5455 5455 5455 5455 5455 5456 5457 5457 5457 5456 5456 5457 5458 5458 5459 5459 5460 5461 5461 5462 5463 5463 5464 5465 5465 5466 5467 5467 5468 5468 5469 5470 5470 5471 5471 5472 5472 5473 5473 5473 5473 5473 5474 5474 5475 5475 5475 5475 5476 5476 5477 5477 5478 5478 5478 5478 5478 5478 5478 5478 5478 5478 5478 5478 5478 5478 5479 5479 5479 5479 5479 5479 5480 5480 5480 5481 5481
5444 5445 5445 5446 5447 5448 5448 5448 5448 5449 5449 5449 5449 5449 5449 5449 5450 5450 5450 5450 5451 5452 5453 5453 5454 5455 5455 5456 5456 5457 5457 5458 5459 5459 5460 5460 5461 5462 5462 5463 5463 5464 5465 5465 5466 5466 5467 5467 5467 5467 5468 5468 5468 5468 5469 5469 5469 5470 5470 5471 5471 5472 5472 5472 5472 5472 5472 5472 5472 5472 5472 5472 5472 5473 5473 5473 5473 5473 5473 5473 5473 5473 5474 5474 5474 5475
5438 5438 5439 5439 5440 5441 5442 5442 5442 5442 5442 5443 5443 5443 5443 5443 5443 5444 5444 5444 5444 5445 5447 5447 5448 5449 5450 5450 5451 5451 5451 5452 5453 5453 5454 5454 5455 5455 5456 5456 5457 5458 5458 5459 5459 5460 5461 5461 5461 5461 5462 5462 5462 5462 5463 5463 5463 5464 5464 5465 5465 5466 5466 5466 5466 5465 5465 5465 5466 5466 5466 5466 5466 5467 5467 5467 5467 5467 5467 5467 5467 5467 5468 5468 5468 5468
5431 5432 5432 5433 5434 5435 5435 5436 5436 5436 5436 5437 5437 5436 5437 5437 5437 5438 5438 5438 5438 5439 5441 5442 5443 5443 5444 5445 5445 5445 5445 5446 5447 5448 5448 5449 5449 5449 5450 5450 5451 5452 5453 5453 5454 5454 5455 5455 5455 5455 5456 5456 5456 5456 5457 5457 5458 5458 5458 5459 5459 5460 5460 5460 5460 5459 5459 5459 5460 5460 5460 5460 5460 5460 5461 5460 5461 5461 5461 5461 5461 5461 5461 5462 5462 5462
5425 5426 5426 5427 5428 5429 5429 5430 5430 5430 5430 5430 5431 5430 5430 5431 5431 5431 5432 5433 5433 5434 5435 5436 5437 5438 5438 5439 5439 5439 5439 5440 5441 5442 5443 5443 5443 5444 5444 5445 5445 5446 5447 5448 5448 5448 5449 5449 5449 5450 5450 5450 5450 5451 5451 5451 5452 5453 5453 5453 5453 5454 5454 5454 5454 5453 5453 5453 5453 5454 5454 5454 5454 5454 5454 5454 5454 5454 5454 5454 5454 5454 5455 5455 5455 5455
5419 5420 5420 5421 5422 5423 5423 5424 5424 5424 5424 5424 5424 5424 5424 5424 5425 5426 5427 5427 5428 5429 5429 5430 5431 5432 5433 5433 5433 5433 5433 5433 5434 5436 5437 5438 5438 5438 5439 5439 5440 5441 5442 5443 5443 5443 5443 5443 5444 5444 5444 5445 5445 5445 5445 5446 5446 5447 5447 5448 5448 5448 5448 5448 5448 5448 5448 5448 5448 5448 5448 5448 5448 5448 5448 5448 5448 5448 5448 5448 5448 5448 5448 5448 5448 5449
5413 5414 5415 5416 5416 5417 5418 5418 5418 5418 5418 5419 5419 5418 5418 5418 5419 5420 5421 5422 5423 5423 5423 5424 5425 5426 5427 5427 5427 5427 5428 5428 5429 5430 5432 5433 5433 5433 5433 5434 5435 5436 5437 5437 5438 5438 5438 5438 5438 5438 5439 5439 5439 5439 5439 5440 5440 5441 5441 5442 5442 5442 5442 5442 5442 5442 5442 5442 5442 5442 5442 5442 5442 5442 5442 5442 5442 5442 5442 5442 5442 5442 5442 5442 5442 5442
5408 5409 5409 5410 5411 5411 5412 5412 5413 5413 5413 5413 5413 5413 5412 5413 5414 5415 5416 5416 5417 5417 5418 5419 5420 5421 5422 5422 5421 5421 5422 5423 5423 5425 5427 5427 5427 5427 5428 5429 5430 5430 5431 5432 5432 5432 5432 5432 5433 5433 5433 5433 5433 5433 5434 5434 5435 5435 5436 5436 5436 5436 5436 5436 5436 5436 5436 5436 5436 5436 5436 5435 5435 5435 5435 5436 5436 5436 5435 5435 5435 5435 5435 5435 5435 5436
5403 5403 5404 5405 5405 5405 5406 5406 5407 5408 5407 5407 5407 5407 5407 5407 5408 5409 5410 5411 5411 5412 5413 5414 5415 5415 5416 5416 5416 5416 5417 5418 5418 5419 5421 5422 5422 5422 5423 5424 5424 5425 5426 5427 5427 5427 5427 5427 5427 5427 5427 5427 5427 5428 5428 5428 5429 5429 5430 5430 5431 5431 5430 5430 5430 5430 5430 5430 5430 5430 5429 5429 5429 5429 5429 5429 5429 5429 5429 5429 5429 5429 5429 5429 5429 5429
5398 5398 5399 5400 5400 5400 5400 5401 5402 5402 5402 5402 5402 5402 5402 5402 5403 5403 5404 5405 5406 5407 5408 5409 5409 5410 5411 5411 5411 5411 5411 5413 5413 5414 5415 5417 5417 5417 5418 5418 5419 5420 5421 5421 5421 5421 5421 5421 5421 5421 5421 5422 5422 5422 5423 5423 5423 5424 5424 5425 5425 5425 5425 5424 5424 5424 5424 5424 5424 5424 5423 5423 5423 5423 5423 5423 5423 5423 5423 5423 5423 5423 5423 5423 5423 5423
5393 5393 5394 5395 5395 5395 5395 5396 5397 5396 5396 5396 5397 5397 5397 5397 5397 5398 5398 5400 5401 5402 5403 5403 5404 5405 5406 5406 5406 5406 5407 5408 5408 5409 5410 5411 5412 5412 5413 5413 5414 5414 5415 5416 5416 5415 5415 5415 5415 5415 5416 5416 5416 5416 5417 5417 5418 5418 5419 5419 5419 5419 5419 5419 5419 5418 5418 5418 5418 5418 5418 5417 5417 5417 5417 5417 5417 5417 5417 5417 5417 5417 5417 5416 5416 5416
5389 5389 5389 5389 5389 5390 5391 5391 5391 5391 5391 5391 5392 5392 5392 5392 5392 5392 5393 5395 5396 5397 5398 5398 5399 5400 5400 5401 5401 5401 5402 5403 5403 5404 5405 5406 5406 5407 5408 5408 5408 5409 5410 5410 5410 5409 5409 5409 5410 5410 5410 5410 5411 5411 5411 5412 5412 5413 5413 5413 5413 5413 5413 5413 5413 5413 5413 5413 5412 5412 5412 5411 5411 5411 5411 5411 5411 5411 5411 5411 5411 5411 5410 5410 5410 5410
5385 5386 5386 5385 5385 5385 5385 5385 5385 5386 5386 5386 5387 5387 5387 5387 5387 5387 5388 5389 5391 5392 5393 5393 5394 5394 5395 5396 5396 5396 5396 5397 5398 5399 5400 5401 5401 5402 5402 5403 5403 5403 5404 5404 5404 5404 5404 5404 5404 5405 5405 5405 5405 5405 5406 5406 5407 5407 5408 5408 5408 5408 5408 5408 5408 5407 5407 5407 5407 5406 5406 5406 5405 5405 5405 5405 5405 5405 5405 5405 5405 5404 5404 5404 5404 5404
5380 5381 5382 5382 5381 5381 5381 5381 5381 5381 5381 5382 5382 5382 5382 5382 5382 5382 5383 5384 5385 5387 5387 5388 5388 5389 5390 5391 5391 5391 5391 5392 5393 5394 5394 5395 5396 5396 5397 5398 5398 5398 5398 5398 5399 5398 5398 5399 5399 5399 5400 5399 5400 5400 5400 5401 5401 5402 5402 5402 5402 5402 5402 5402 5402 5402 5402 5401 5401 5401 5400 5400 5400 5399 5399 5399 5399 5399 5399 5399 5398 5398 5398 5398 5398 5398
5375 5376 5377 5378 5378 5377 5377 5377 5377 5377 5377 5377 5377 5377 5377 5377 5377 5378 5378 5379 5381 5381 5382 5383 5383 5384 5384 5385 5386 5386 5386 5387 5388 5388 5389 5390 5391 5391 5392 5393 5393 5393 5392 5393 5393 5393 5393 5394 5394 5394 5394 5394 5394 5395 5395 5395 5396 5396 5397 5397 5397 5397 5397 5397 5396 5396 5396 5396 5395 5395 5395 5394 5394 5394 5394 5393 5393 5393 5393 5393 5392 5392 5392 5392 5392 5392
5371 5372 5372 5373 5373 5373 5373 5373 5373 5373 5373 5373 5373 5373 5372 5373 5373 5373 5374 5375 5376 5376 5376 5377 5378 5379 5380 5380 5381 5381 5381 5382 5383 5383 5384 5385 5386 5386 5387 5388 5388 5387 5387 5387 5388 5388 5388 5388 5389 5389 5389 5389 5389 5389 5390 5390 5390 5391 5391 5392 5392 5392 5391 5391 5391 5391 5390 5390 5390 5390 5389 5389 5388 5388 5388 5388 5388 5387 5387 5387 5386 5386 5386 5385 5385 5385
5367 5368 5368 5368 5369 5369 5369 5370 5369 5369 5369 5369 5368 5368 5368 5368 5369 5369 5369 5370 5371 5371 5371 5372 5373 5374 5375 5375 5376 5376 5377 5377 5378 5378 5379 5380 5380 5381 5382 5382 5382 5382 5382 5382 5382 5383 5383 5383 5384 5384 5384 5384 5384 5384 5384 5385 5385 5386 5386 5386 5386 5386 5386 5386 5385 5385 5385 5385 5385 5384 5384 5383 5383 5383 5383 5382 5382 5382 5381 5381 5380 5380 5379 5379 5379 5379
5363 5363 5363 5364 5365 5365 5365 5365 5366 5366 5365 5365 5365 5364 5364 5364 5365 5365 5364 5365 5366 5366 5366 5368 5368 5369 5369 5370 5371 5371 5372 5373 5373 5373 5374 5375 5375 5375 5377 5377 5376 5376 5376 5376 5376 5377 5378 5378 5379 5379 5379 5378 5379 5379 5379 5380 5380 5380 5381 5381 5381 5381 5381 5380 5380 5380 5380 5379 5379 5379 5378 5378 5378 5377 5377 5377 5376 5376 5375 5375 5374 5373 5373 5373 5373 5372
5358 5358 5358 5359 5360 5360 5361 5361 5362 5362 5362 5361 5361 5361 5361 5361 5361 5361 5361 5361 5361 5361 5362 5363 5363 5364 5364 5365 5366 5367 5368 5368 5368 5368 5368 5369 5369 5370 5371 5371 5370 5370 5371 5371 5371 5372 5373 5374 5374 5374 5373 5373 5374 5374 5374 5374 5375 5375 5375 5376 5376 5375 5375 5375 5375 5374 5374 5374 5374 5373 5373 5373 5372 5372 5371 5371 5370 5370 5369 5369 5368 5367 5367 5367 5367 5366
5355 5355 5355 5355 5355 5355 5355 5356 5357 5357 5358 5358 5357 5357 5357 5357 5357 5357 5357 5357 5357 5357 5357 5358 5358 5359 5359 5360 5361 5362 5363 5363 5363 5363 5363 5363 5364 5364 5366 5366 5365 5365 5366 5366 5366 5367 5368 5369 5369 5369 5369 5368 5369 5369 5369 5369 5369 5370 5370 5370 5370 5370 5370 5369 5369 5369 5369 5369 5369 5368 5368 5367 5367 5366 5366 5365 5365 5364 5364 5363 5362 5361 5360 5360 5360 5359
5351 5351 5351 5351 5351 5350 5350 5351 5351 5352 5352 5353 5353 5353 5353 5353 5353 5353 5353 5353 5353 5353 5353 5353 5354 5354 5355 5355 5356 5357 5358 5358 5358 5358 5358 5358 5358 5359 5360 5360 5360 5359 5361 5361 5362 5362 5363 5364 5364 5365 5364 5364 5364 5364 5364 5364 5364 5364 5365 5365 5365 5365 5365 5364 5364 5364 5364 5364 5363 5363 5362 5362 5361 5361 5360 5360 5359 5359 5358 5357 5356 5355 5354 5354 5353 5353
5348 5347 5347 5347 5347 5346 5346 5346 5346 5346 5347 5347 5348 5348 5348 5349 5349 5349 5349 5349 5349 5349 5349 5349 5349 5349 5350 5350 5351 5352 5353 5353 5353 5353 5353 5353 5353 5353 5355 5355 5355 5354 5355 5356 5357 5357 5358 5359 5359 5359 5359 5359 5359 5359 5359 5359 5359 5359 5359 5360 5360 5360 5359 5359 5358 5358 5358 5358 5358 5358 5357 5356 5356 5355 5355 5354 5354 5353 5353 5352 5350 5349 5348 5347 5347 5347
5344 5344 5343 5343 5343 5343 5342 5342 5342 5342 5342 5342 5342 5343 5343 5344 5344 5344 5344 5344 5344 5344 5344 5344 5344 5344 5345 5345 5346 5347 5347 5348 5348 5347 5347 5348 5348 5348 5349 5349 5350 5350 5350 5351 5352 5353 5353 5354 5354 5354 5354 5354 5355 5355 5354 5354 5354 5354 5354 5355 5355 5354 5354 5354 5353 5353 5353 5353 5353 5352 5352 5351 5350 5350 5349 5349 5348 5348 5347 5346 5345 5343 5342 5341 5340 5340
5341 5341 5340 5340 5339 5339 5338 5338 5338 5338 5338 5338 5338 5338 5338 5338 5339 5340 5340 5340 5340 5340 5340 5340 5340 5340 5340 5340 5341 5342 5342 5343 5342 5342 5342 5343 5343 5343 5344 5344 5345 5345 5346 5346 5347 5348 5348 5349 5349 5349 5349 5349 5350 5350 5350 5349 5349 5349 5349 5350 5350 5349 5349 5349 5348 5348 5348 5348 5347 5347 5346 5346 5345 5344 5344 5344 5343 5343 5342 5341 5340 5338 5337 5335 5334 5333
5338 5338 5337 5336 5336 5335 5335 5335 5334 5334 5334 5333 5333 5333 5333 5333 5333 5334 5335 5335 5336 5336 5336 5336 5335 5335 5335 5336 5336 5337 5337 5337 5337 5337 5337 5338 5338 5339 5339 5340 5341 5341 5341 5342 5342 5343 5344 5344 5344 5344 5345 5345 5345 5345 5345 5344 5344 5344 5344 5344 5345 5344 5344 5344 5343 5343 5343 5342 5342 5342 5341 5340 5340 5339 5339 5339 5338 5337 5336 5336 5334 5333 5332 5330 5329 5327
5335 5334 5334 5333 5333 5332 5332 5331 5331 5330 5330 5330 5329 5329 5329 5329 5329 5329 5330 5330 5331 5332 5332 5332 5332 5331 5331 5331 5331 5332 5332 5332 5331 5332 5332 5333 5334 5334 5335 5336 5336 5337 5337 5337 5338 5338 5339 5339 5339 5339 5340 5340 5340 5340 5340 5339 5339 5339 5339 5340 5340 5340 5339 5339 5338 5338 5338 5337 5337 5337 5336 5336 5335 5335 5334 5334 5333 5332 5332 5331 5330 5328 5327 5325 5323 5322
5331 5331 5330 5330 5329 5329 5328 5328 5327 5327 5327 5326 5326 5326 5326 5325 5325 5325 5325 5325 5325 5326 5327 5327 5328 5327 5327 5327 5327 5327 5326 5326 5326 5327 5328 5328 5329 5330 5331 5331 5332 5333 5333 5333 5333 5333 5333 5334 5334 5335 5335 5335 5335 5335 5335 5334 5334 5334 5335 5335 5335 5335 5334 5334 5333 5333 5333 5332 5332 5332 5331 5331 5330 5330 5330 5329 5328 5328 5327 5326 5325 5323 5322 5320 5318 5316
5328 5327 5327 5327 5326 5325 5325 5324 5324 5323 5323 5323 5323 5323 5322 5322 5322 5321 5321 5321 5321 5321 5322 5322 5323 5323 5323 5322 5322 5322 5322 5321 5322 5322 5323 5323 5324 5325 5326 5327 5327 5328 5328 5328 5328 5328 5328 5329 5329 5330 5330 5330 5330 5330 5330 5329 5329 5330 5330 5330 5330 5330 5330 5329 5328 5328 5328 5328 5327 5327 5327 5326 5326 5325 5325 5324 5324 5323 5322 5321 5320 5318 5316 5314 5313 5311
5325 5324 5323 5323 5322 5322 5321 5321 5321 5320 5320 5319 5319 5319 5319 5318 5318 5318 5317 5317 5317 5317 5317 5317 5318 5318 5318 5318 5317 5317 5317 5317 5317 5317 5318 5318 5319 5320 5321 5322 5323 5323 5323 5323 5323 5323 5323 5324 5324 5325 5325 5325 5325 5325 5325 5325 5325 5325 5325 5325 5326 5326 5325 5325 5324 5323 5323 5323 5323 5323 5322 5322 5322 5321 5320 5319 5319 5318 5317 5316 5315 5313 5311 5309 5307 5306
5322 5321 5320 5319 5319 5318 5318 5318 5317 5317 5317 5316 5316 5316 5315 5315 5315 5314 5314 5313 5313 5313 5313 5313 5313 5313 5313 5313 5313 5312 5312 5312 5312 5313 5313 5313 5314 5315 5316 5317 5317 5318 5318 5318 5318 5318 5319 5319 5319 5320 5320 5320 5321 5321 5321 5321 5321 5321 5321 5321 5321 5321 5321 5320 5319 5319 5318 5318 5318 5318 5318 5317 5317 5316 5315 5315 5314 5313 5312 5311 5309 5308 5306 5304 5302 5300
5319 5318 5318 5317 5316 5315 5314 5314 5314 5314 5313 5313 5313 5313 5312 5312 5311 5311 5310 5310 5310 5309 5309 5309 5309 5309 5309 5309 5309 5308 5308 5308 5307 5308 5308 5308 5309 5310 5311 5312 5312 5313 5313 5313 5313 5314 5314 5314 5314 5315 5315 5316 5316 5316 5317 5317 5317 5317 5317 5317 5317 5317 5317 5316 5315 5314 5314 5313 5314 5313 5313 5313 5312 5311 5311 5310 5309 5308 5307 5306 5304 5303 5301 5299 5297 5295
5315 5315 5314 5314 5313 5312 5311 5311 5310 5310 5310 5310 5309 5309 5308 5308 5307 5307 5306 5306 5306 5305 5305 5305 5305 5305 5305 5305 5305 5305 5304 5303 5303 5303 5303 5303 5304 5305 5306 5306 5307 5308 5308 5309 5309 5309 5309 5310 5310 5310 5311 5311 5311 5312 5313 5313 5313 5313 5312 5312 5312 5312 5312 5312 5311 5310 5309 5309 5309 5309 5308 5308 5307 5306 5306 5305 5304 5303 5302 5301 5299 5297 5295 5293 5292 5290
5311 5311 5311 5311 5310 5309 5308 5308 5307 5307 5306 5306 5305 5305 5304 5303 5303 5303 5302 5302 5302 5301 5301 5301 5301 5301 5300 5300 5300 5300 5299 5298 5298 5298 5298 5298 5299 5300 5301 5301 5302 5302 5303 5304 5304 5304 5305 5305 5305 5306 5306 5306 5307 5308 5308 5309 5309 5308 5308 5308 5308 5308 5308 5308 5307 5306 5305 5305 5305 5304 5303 5302 5302 5301 5301 5301 5300 5298 5297 5296 5294 5292 5291 5288 5287 5285
5308 5308 5307 5307 5306 5305 5304 5303 5303 5302 5302 5301 5301 5300 5300 5299 5298 5298 5298 5298 5297 5297 5297 5297 5297 5296 5296 5296 5296 5295 5294 5294 5294 5293 5293 5294 5294 5295 5295 5296 5297 5297 5298 5298 5299 5299 5300 5300 5301 5301 5302 5302 5302 5303 5304 5305 5304 5304 5303 5303 5303 5303 5303 5303 5303 5302 5301 5301 5300 5299 5298 5297 5297 5296 5296 5296 5295 5294 5292 5291 5289 5288 5286 5284 5282 5280
5304 5303 5303 5303 5302 5301 5300 5299 5298 5298 5298 5297 5296 5296 5295 5294 5294 5294 5293 5293 5293 5293 5292 5293 5293 5292 5292 5292 5291 5291 5290 5289 5289 5289 5289 5289 5289 5289 5290 5291 5291 5292 5292 5293 5294 5294 5295 5296 5296 5297 5297 5297 5298 5299 5300 5300 5299 5299 5298 5298 5298 5298 5298 5298 5298 5298 5297 5296 5295 5295 5293 5292 5292 5291 5291 5291 5290 5289 5288 5286 5285 5283 5281 5279 5277 5276
5300 5299 5298 5298 5298 5297 5296 5295 5294 5293 5293 5292 5292 5291 5290 5290 5289 5289 5289 5289 5288 5288 5288 5288 5288 5288 5287 5287 5287 5286 5285 5285 5285 5284 5284 5284 5284 5284 5285 5285 5286 5286 5287 5288 5288 5289 5290 5291 5291 5292 5292 5293 5293 5294 5295 5295 5295 5294 5293 5293 5293 5293 5293 5293 5293 5293 5292 5291 5291 5290 5288 5288 5287 5286 5286 5286 5285 5284 5283 5282 5280 5278 5276 5274 5273 5271
5295 5295 5294 5293 5293 5292 5291 5290 5290 5289 5288 5287 5287 5286 5285 5285 5285 5284 5284 5284 5284 5283 5283 5283 5283 5283 5283 5282 5282 5281 5281 5281 5280 5280 5280 5280 5280 5280 5280 5281 5281 5281 5282 5283 5283 5284 5285 5286 5286 5287 5288 5288 5289 5289 5290 5290 5290 5289 5288 5288 5288 5288 5288 5288 5288 5288 5287 5287 5286 5285 5284 5283 5282 5281 5281 5280 5280 5279 5279 5278 5276 5274 5272 5270 5268 5266
5291 5290 5290 5289 5288 5287 5286 5286 5285 5284 5283 5282 5282 5281 5281 5280 5280 5280 5279 5279 5279 5279 5279 5278 5278 5278 5278 5278 5277 5277 5277 5277 5277 5276 5276 5276 5276 5276 5276 5276 5277 5277 5278 5278 5279 5280 5280 5281 5282 5282 5283 5284 5284 5284 5284 5285 5284 5284 5284 5284 5284 5283 5283 5284 5284 5283 5283 5282 5281 5280 5279 5278 5277 5277 5276 5275 5275 5275 5274 5273 5272 5270 5268 5265 5263 5262
5287 5286 5285 5284 5283 5282 5282 5281 5280 5279 5278 5278 5277 5276 5276 5276 5275 5275 5275 5275 5274 5274 5274 5274 5274 5274 5273 5273 5273 5273 5273 5273 5273 5273 5273 5273 5273 5273 5272 5272 5273 5273 5273 5274 5275 5276 5276 5277 5278 5278 5278 5279 5279 5278 5278 5279 5279 5279 5279 5279 5279 5279 5279 5279 5279 5279 5278 5277 5276 5275 5274 5273 5273 5272 5271 5270 5269 5269 5269 5268 5267 5266 5263 5261 5259 5258
5283 5282 5281 5280 5278 5278 5277 5276 5275 5274 5274 5273 5272 5272 5271 5271 5271 5271 5271 5270 5270 5270 5270 5270 5270 5270 5269 5269 5269 5269 5269 5269 5269 5269 5268 5268 5268 5268 5268 5268 5268 5268 5269 5269 5270 5271 5271 5272 5273 5274 5274 5274 5273 5273 5273 5273 5273 5274 5273 5274 5274 5274 5274 5274 5274 5274 5273 5272 5271 5270 5270 5269 5268 5267 5266 5265 5264 5264 5264 5263 5263 5261 5259 5257 5255 5253